LiveATC.Net - Listen to live air traffic control over the Internet!


ICAO: MSSS  IATA:   Airport: Ilopango International Airport
City: San Salvador
Country: El Salvador   Continent: North America  Region: Central America
MSSS METAR Weather: MSSS 140550Z 20002KT CAVOK 22/21 Q1017 A3004
MSSS Flight Activity (FlightAware)

MSSS Tower
Feed Status: DOWN
Last heard on: 2019-11-12 03:27:40 (2 days 6 hours 43 minutes ago)
Archive Access: MSSS Tower
FacilityFrequency
Ilopango Tower118.300

NOTICE

Unauthorized use prohibited. See LiveATC.net Terms of Service


Airport/ARTCC Code
Frequency Search
(e.g., 124.400, 128.75)
Site-wide search
 


Browse LiveATC Feeds
Top 50 LiveATC Feeds
LiveATC Feed Map
Bad Weather Areas

LiveATC FAQ
Offer LiveATC feed
Contact LiveATC.net
Press Inquiries

LiveATC on iPhone
LiveATC on Android

Windows Phone
Windows 8/10

LiveATC Mobile
(Mobile browser)

ATC Audio Archives
Interesting Recordings

LiveATC Forums


Home Page
About LiveATC.net
Make a Donation
Terms of Use
Privacy Policy

Canadian Air Freqs

AIRMETs/SIGMETs

FAA Airport Status
Nat'l Airspace Status
Arrival Demand Charts


Server Software By:
Icecast.org
Liquidsoap